Location: Aulnoy
(48.8410°N, 3.0967°E)
Time: 07:10:53
(UTC+00:00)

Cosmos 2058 Rocket - Pass Details

Date: 09 February 2023
Orbit: 610 x 637 km, 82.5° (Epoch: 30 March)

Event Time Altitude Azimuth Distance (km) Brightness Sun altitude
Rises 18:15:14 0° 346° (NNW) 2,908 6.6 -13.1°
Reaches altitude 10° 18:17:30 10° 342° (NNW) 2,002 5.8 -13.5°
Maximum altitude 18:21:50 55° 265° (W) 754 3.9 -14.2°
Drops below altitude 10° 18:26:10 10° 188° (S) 2,002 5.8 -14.9°
Sets 18:28:25 0° 184° (S) 2,909 6.6 -15.3°
